Retour au catalogue

STARLINK-35185

ActifCommunicationsSSO
NORAD 65608·PAYLOAD·🇺🇸 United States

Lancé Sep 13, 2025 depuis Cape Canaveral Space Force Station

Loading…

Prochains Passages (prochaines 24 heures)

TLE

FraisSource: CelesTrak SupGP

Époque: Sep 14, 2026, 21:03 UTC

1 65608C 25207S   26257.87756944  .02279600  00000+0  11413+0 0  2574
2 65608  97.2841 320.5686 0001710  82.1139 204.8837 15.16328493    16

Suivez STARLINK-35185 en temps réel avec AllMySat

Download on the App Store